This is the latest recevied weather packets stored in our database for station/object KE5AKC. If no packets are shown the sender has not sent any weather packets the latest 10 day(s).
| Time | Temp. | Humidity | Pressure | Rain* | Wind** | Luminosity | Snow |
|---|---|---|---|---|---|---|---|
| 1777343036 | 26.11° C | 85% | 1012 hPa | 0 mm | - | 0 W/m² | - |
| 1777342733 | 26.11° C | 85% | 1011.7 hPa | 0 mm | - | 0 W/m² | - |
| 1777342430 | 26.11° C | 85% | 1012 hPa | 0 mm | - | 0 W/m² | - |
| 1777342127 | 26.11° C | 85% | 1012 hPa | 0 mm | - | 0 W/m² | - |
| 1777341823 | 26.11° C | 85% | 1011.7 hPa | 0 mm | - | 0 W/m² | - |
| 1777341520 | 26.11° C | 85% | 1011.7 hPa | 0 mm | - | 0 W/m² | - |
| 1777341216 | 26.11° C | 84% | 1012 hPa | 0 mm | - | 0 W/m² | - |
| 1777340913 | 26.11° C | 84% | 1012 hPa | 0 mm | - | 0 W/m² | - |
| 1777340611 | 26.11° C | 84% | 1012 hPa | 0 mm | - | 0 W/m² | - |
| 1777340308 | 26.11° C | 84% | 1012 hPa | 0 mm | - | 0 W/m² | - |
| 1777340005 | 26.11° C | 84% | 1011.3 hPa | 0 mm | - | 0 W/m² | - |
| 1777339703 | 26.11° C | 84% | 1011.3 hPa | 0 mm | - | 0 W/m² | - |
| 1777339400 | 26.67° C | 83% | 1011.7 hPa | 0 mm | - | 0 W/m² | - |
| 1777339098 | 26.67° C | 82% | 1011.3 hPa | 0 mm | - | 0 W/m² | - |
| 1777338795 | 26.67° C | 81% | 1011.3 hPa | 0 mm | - | 0 W/m² | - |
| 1777338492 | 26.67° C | 81% | 1011.3 hPa | 0 mm | - | 0 W/m² | - |
| 1777338189 | 26.67° C | 81% | 1011.3 hPa | 0 mm | - | 1 W/m² | - |
| 1777337885 | 26.67° C | 81% | 1011.3 hPa | 0 mm | - | 2 W/m² | - |
| 1777337582 | 26.67° C | 81% | 1011.3 hPa | 0 mm | - | 4 W/m² | - |
| 1777337280 | 27.22° C | 80% | 1011.3 hPa | 0 mm | - | 6 W/m² | - |
| 1777336977 | 27.22° C | 80% | 1011.3 hPa | 0 mm | - | 8 W/m² | - |
| 1777336675 | 27.22° C | 79% | 1011 hPa | 0 mm | - | 12 W/m² | - |
| 1777336373 | 27.22° C | 79% | 1011 hPa | 0 mm | - | 17 W/m² | - |
| 1777336070 | 27.22° C | 78% | 1011 hPa | 0 mm | - | 23 W/m² | - |
| 1777335767 | 27.22° C | 78% | 1010.7 hPa | 0 mm | - | 30 W/m² | - |
* Rain latest hour (hover to see other rain measurements)
** Current wind speed in m/s (hover to see current wind gust speed)